Time,TemperatureF,DewpointF,PressureIn,WindDirection,WindDirectionDegrees,WindSpeedMPH,WindSpeedGustMPH,Humidity,HourlyPrecipIn,Conditions,Clouds,dailyrainin,SoftwareType,DateUTC
2013-05-22 00:00:00,72.2,69.8,29.88,WSW,237,0.0,1.0,92,0.00,,---,0.00,VWS V14.01,2013-05-22 04:00:00,
2013-05-22 00:01:00,72.3,69.8,29.89,West,259,0.0,1.0,92,0.00,,---,0.00,VWS V14.01,2013-05-22 04:01:00,
2013-05-22 00:06:00,72.5,70.1,29.88,WSW,239,1.0,2.0,92,0.00,,---,0.00,VWS V14.01,2013-05-22 04:06:00,
2013-05-22 00:10:00,72.6,69.8,29.88,SW,225,0.0,2.0,91,0.00,,---,0.00,VWS V14.01,2013-05-22 04:10:00,
2013-05-22 00:11:00,72.6,69.8,29.88,SW,225,0.0,0.0,91,0.00,,---,0.00,VWS V14.01,2013-05-22 04:11:00,
2013-05-22 00:16:00,72.6,69.8,29.88,SW,226,0.0,1.0,91,0.00,,---,0.00,VWS V14.01,2013-05-22 04:16:00,
2013-05-22 00:20:00,72.5,69.7,29.88,West,280,0.0,1.0,91,0.00,,---,0.00,VWS V14.01,2013-05-22 04:20:00,
2013-05-22 00:21:00,72.5,69.7,29.88,WNW,283,1.0,1.0,91,0.00,,---,0.00,VWS V14.01,2013-05-22 04:21:00,
2013-05-22 00:26:00,72.6,69.8,29.88,WSW,255,0.0,1.0,91,0.00,,---,0.00,VWS V14.01,2013-05-22 04:26:00,
2013-05-22 00:30:00,72.6,69.8,29.88,WNW,290,1.0,3.0,91,0.00,,---,0.00,VWS V14.01,2013-05-22 04:30:00,
2013-05-22 00:31:00,72.6,69.8,29.88,West,262,0.0,2.0,91,0.00,,---,0.00,VWS V14.01,2013-05-22 04:31:00,
2013-05-22 00:36:00,72.7,69.9,29.88,WSW,251,0.0,2.0,91,0.00,,---,0.00,VWS V14.01,2013-05-22 04:36:00,
2013-05-22 00:40:00,72.8,70.0,29.88,WNW,288,1.0,2.0,91,0.00,,---,0.00,VWS V14.01,2013-05-22 04:40:00,
2013-05-22 00:42:00,72.8,69.7,29.88,WNW,288,0.0,1.0,90,0.00,,---,0.00,VWS V14.01,2013-05-22 04:42:00,
2013-05-22 00:46:00,72.8,69.7,29.87,West,263,0.0,3.0,90,0.00,,---,0.00,VWS V14.01,2013-05-22 04:46:00,
2013-05-22 00:50:00,72.8,69.7,29.87,NW,307,1.0,3.0,90,0.00,,---,0.00,VWS V14.01,2013-05-22 04:50:00,
2013-05-22 00:52:00,72.7,69.6,29.87,WNW,302,0.0,2.0,90,0.00,,---,0.00,VWS V14.01,2013-05-22 04:52:00,
2013-05-22 00:57:00,72.6,69.8,29.87,WNW,298,0.0,2.0,91,0.00,,---,0.00,VWS V14.01,2013-05-22 04:57:00,
2013-05-22 01:00:00,72.5,69.7,29.87,West,276,0.0,2.0,91,0.00,,---,0.00,VWS V14.01,2013-05-22 05:00:00,
2013-05-22 01:02:00,72.3,69.5,29.87,West,281,1.0,1.0,91,0.00,,---,0.00,VWS V14.01,2013-05-22 05:02:00,
2013-05-22 01:07:00,72.0,69.6,29.87,WNW,282,2.0,3.0,92,0.00,,---,0.00,VWS V14.01,2013-05-22 05:07:00,
2013-05-22 01:10:00,71.8,69.4,29.87,WNW,291,1.0,3.0,92,0.00,,---,0.00,VWS V14.01,2013-05-22 05:10:00,
2013-05-22 01:12:00,71.7,69.3,29.87,WNW,285,1.0,2.0,92,0.00,,---,0.00,VWS V14.01,2013-05-22 05:12:00,
2013-05-22 01:17:00,71.5,69.4,29.86,WNW,285,0.0,2.0,93,0.00,,---,0.00,VWS V14.01,2013-05-22 05:17:00,
2013-05-22 01:20:00,71.4,69.3,29.86,WNW,284,0.0,2.0,93,0.00,,---,0.00,VWS V14.01,2013-05-22 05:20:00,
2013-05-22 01:22:00,71.4,69.3,29.86,West,276,0.0,0.0,93,0.00,,---,0.00,VWS V14.01,2013-05-22 05:22:00,
2013-05-22 01:27:00,71.4,69.3,29.86,West,274,0.0,1.0,93,0.00,,---,0.00,VWS V14.01,2013-05-22 05:27:00,
2013-05-22 01:30:00,71.3,69.2,29.86,West,274,0.0,1.0,93,0.00,,---,0.00,VWS V14.01,2013-05-22 05:30:00,
2013-05-22 01:32:00,71.3,69.5,29.86,West,271,0.0,1.0,94,0.00,,---,0.00,VWS V14.01,2013-05-22 05:32:00,
2013-05-22 01:37:00,71.3,69.5,29.86,West,271,0.0,1.0,94,0.00,,---,0.00,VWS V14.01,2013-05-22 05:37:00,
2013-05-22 01:40:00,71.3,69.5,29.86,WSW,257,0.0,1.0,94,0.00,,---,0.00,VWS V14.01,2013-05-22 05:40:00,
2013-05-22 01:42:00,71.3,69.2,29.86,West,264,0.0,1.0,93,0.00,,---,0.00,VWS V14.01,2013-05-22 05:42:00,
2013-05-22 01:47:00,71.2,69.1,29.86,WNW,284,1.0,1.0,93,0.00,,---,0.00,VWS V14.01,2013-05-22 05:47:00,
2013-05-22 01:50:00,71.2,69.1,29.86,West,274,0.0,1.0,93,0.00,,---,0.00,VWS V14.01,2013-05-22 05:50:00,
2013-05-22 01:52:00,71.1,69.0,29.86,West,274,0.0,1.0,93,0.00,,---,0.00,VWS V14.01,2013-05-22 05:52:00,
2013-05-22 01:57:00,71.0,68.9,29.85,West,269,0.0,1.0,93,0.00,,---,0.00,VWS V14.01,2013-05-22 05:57:00,
2013-05-22 02:00:00,70.9,68.8,29.86,West,269,0.0,1.0,93,0.00,,---,0.00,VWS V14.01,2013-05-22 06:00:00,
2013-05-22 02:02:00,70.7,68.6,29.85,West,269,0.0,0.0,93,0.00,,---,0.00,VWS V14.01,2013-05-22 06:02:00,
2013-05-22 02:07:00,70.5,68.7,29.85,SW,232,0.0,0.0,94,0.00,,---,0.00,VWS V14.01,2013-05-22 06:07:00,
2013-05-22 02:10:00,70.4,68.6,29.85,SW,231,0.0,0.0,94,0.00,,---,0.00,VWS V14.01,2013-05-22 06:10:00,
2013-05-22 02:12:00,70.2,68.4,29.85,SW,232,0.0,0.0,94,0.00,,---,0.00,VWS V14.01,2013-05-22 06:12:00,
2013-05-22 02:17:00,69.9,68.1,29.86,South,187,0.0,0.0,94,0.00,,---,0.00,VWS V14.01,2013-05-22 06:17:00,
2013-05-22 02:20:00,69.7,67.9,29.86,South,187,0.0,0.0,94,0.00,,---,0.00,VWS V14.01,2013-05-22 06:20:00,
2013-05-22 02:22:00,69.6,68.1,29.86,East,96,0.0,1.0,95,0.00,,---,0.00,VWS V14.01,2013-05-22 06:22:00,
2013-05-22 02:27:00,69.4,67.9,29.85,ENE,76,1.0,1.0,95,0.00,,---,0.00,VWS V14.01,2013-05-22 06:27:00,
2013-05-22 02:30:00,69.4,67.9,29.85,ENE,77,1.0,1.0,95,0.00,,---,0.00,VWS V14.01,2013-05-22 06:30:00,
2013-05-22 02:32:00,69.3,67.8,29.85,East,79,1.0,1.0,95,0.00,,---,0.00,VWS V14.01,2013-05-22 06:32:00,
2013-05-22 02:37:00,69.0,67.5,29.85,ENE,77,1.0,2.0,95,0.00,,---,0.00,VWS V14.01,2013-05-22 06:37:00,
2013-05-22 02:40:00,68.8,67.3,29.85,ENE,77,1.0,2.0,95,0.00,,---,0.00,VWS V14.01,2013-05-22 06:40:00,
2013-05-22 02:42:00,68.9,67.7,29.85,ENE,77,0.0,1.0,96,0.00,,---,0.00,VWS V14.01,2013-05-22 06:42:00,
2013-05-22 02:47:00,68.8,67.6,29.85,East,83,2.0,2.0,96,0.00,,---,0.00,VWS V14.01,2013-05-22 06:47:00,
2013-05-22 02:50:00,68.6,67.1,29.84,ENE,62,0.0,2.0,95,0.00,,---,0.00,VWS V14.01,2013-05-22 06:50:00,
2013-05-22 02:52:00,68.4,67.2,29.84,ENE,62,0.0,0.0,96,0.00,,---,0.00,VWS V14.01,2013-05-22 06:52:00,
2013-05-22 02:57:00,68.2,67.0,29.84,ENE,62,0.0,0.0,96,0.00,,---,0.00,VWS V14.01,2013-05-22 06:57:00,
2013-05-22 03:00:00,68.2,67.3,29.84,ESE,107,1.0,2.0,97,0.00,,---,0.00,VWS V14.01,2013-05-22 07:00:00,
2013-05-22 03:02:00,68.2,67.3,29.84,East,97,1.0,1.0,97,0.00,,---,0.00,VWS V14.01,2013-05-22 07:02:00,
2013-05-22 03:07:00,68.0,66.8,29.84,WSW,238,0.0,1.0,96,0.00,,---,0.00,VWS V14.01,2013-05-22 07:07:00,
2013-05-22 03:10:00,67.9,66.7,29.84,WSW,238,0.0,1.0,96,0.00,,---,0.00,VWS V14.01,2013-05-22 07:10:00,
2013-05-22 03:12:00,67.7,66.5,29.84,WSW,238,0.0,0.0,96,0.00,,---,0.00,VWS V14.01,2013-05-22 07:12:00,
2013-05-22 03:17:00,67.7,66.8,29.84,West,263,0.0,1.0,97,0.00,,---,0.00,VWS V14.01,2013-05-22 07:17:00,
2013-05-22 03:20:00,67.7,66.8,29.84,West,263,0.0,1.0,97,0.00,,---,0.00,VWS V14.01,2013-05-22 07:20:00,
2013-05-22 03:22:00,67.6,66.7,29.84,West,262,0.0,0.0,97,0.00,,---,0.00,VWS V14.01,2013-05-22 07:22:00,
2013-05-22 03:27:00,67.6,66.7,29.84,West,261,0.0,0.0,97,0.00,,---,0.00,VWS V14.01,2013-05-22 07:27:00,
2013-05-22 03:30:00,67.5,66.6,29.84,West,262,0.0,0.0,97,0.00,,---,0.00,VWS V14.01,2013-05-22 07:30:00,
2013-05-22 03:32:00,67.4,66.5,29.84,West,262,1.0,1.0,97,0.00,,---,0.00,VWS V14.01,2013-05-22 07:32:00,
2013-05-22 03:37:00,67.4,66.5,29.84,West,261,0.0,1.0,97,0.00,,---,0.00,VWS V14.01,2013-05-22 07:37:00,
2013-05-22 03:40:00,67.4,66.5,29.84,West,262,0.0,1.0,97,0.00,,---,0.00,VWS V14.01,2013-05-22 07:40:00,
2013-05-22 03:42:00,67.3,66.4,29.84,East,101,1.0,1.0,97,0.00,,---,0.00,VWS V14.01,2013-05-22 07:42:00,
2013-05-22 03:47:00,67.6,66.7,29.84,NW,311,0.0,1.0,97,0.00,,---,0.00,VWS V14.01,2013-05-22 07:47:00,
2013-05-22 03:50:00,67.6,67.0,29.84,NW,311,0.0,1.0,98,0.00,,---,0.00,VWS V14.01,2013-05-22 07:50:00,
2013-05-22 03:52:00,67.6,66.7,29.84,WNW,300,0.0,0.0,97,0.00,,---,0.00,VWS V14.01,2013-05-22 07:52:00,
2013-05-22 03:57:00,67.5,66.6,29.83,WNW,302,0.0,2.0,97,0.00,,---,0.00,VWS V14.01,2013-05-22 07:57:00,
2013-05-22 04:00:00,67.5,66.6,29.83,WSW,251,0.0,2.0,97,0.00,,---,0.00,VWS V14.01,2013-05-22 08:00:00,
2013-05-22 04:02:00,67.4,66.5,29.83,WSW,252,0.0,0.0,97,0.00,,---,0.00,VWS V14.01,2013-05-22 08:02:00,
2013-05-22 04:07:00,67.5,66.9,29.83,WSW,252,0.0,1.0,98,0.00,,---,0.00,VWS V14.01,2013-05-22 08:07:00,
2013-05-22 04:10:00,67.5,66.9,29.83,WSW,252,0.0,1.0,98,0.00,,---,0.00,VWS V14.01,2013-05-22 08:10:00,
2013-05-22 04:12:00,67.5,66.6,29.84,WSW,251,0.0,1.0,97,0.00,,---,0.00,VWS V14.01,2013-05-22 08:12:00,
2013-05-22 04:17:00,67.3,66.4,29.83,WSW,251,0.0,1.0,97,0.00,,---,0.00,VWS V14.01,2013-05-22 08:17:00,
2013-05-22 04:20:00,67.1,66.2,29.83,WSW,251,0.0,1.0,97,0.00,,---,0.00,VWS V14.01,2013-05-22 08:20:00,
2013-05-22 04:22:00,66.8,65.9,29.84,WSW,252,0.0,1.0,97,0.00,,---,0.00,VWS V14.01,2013-05-22 08:22:00,
2013-05-22 04:27:00,66.5,65.6,29.84,WSW,253,0.0,1.0,97,0.00,,---,0.00,VWS V14.01,2013-05-22 08:27:00,
2013-05-22 04:30:00,66.5,65.6,29.84,WSW,253,0.0,1.0,97,0.00,,---,0.00,VWS V14.01,2013-05-22 08:30:00,
2013-05-22 04:32:00,66.7,66.1,29.84,NNE,26,0.0,1.0,98,0.00,,---,0.00,VWS V14.01,2013-05-22 08:32:00,
2013-05-22 04:37:00,66.9,66.3,29.84,ENE,62,0.0,1.0,98,0.00,,---,0.00,VWS V14.01,2013-05-22 08:37:00,
2013-05-22 04:40:00,66.8,66.2,29.84,ENE,61,0.0,1.0,98,0.00,,---,0.00,VWS V14.01,2013-05-22 08:40:00,
2013-05-22 04:42:00,66.7,65.8,29.84,ENE,61,0.0,1.0,97,0.00,,---,0.00,VWS V14.01,2013-05-22 08:42:00,
2013-05-22 04:47:00,66.6,66.0,29.84,NNW,347,0.0,1.0,98,0.00,,---,0.00,VWS V14.01,2013-05-22 08:47:00,
2013-05-22 04:50:00,66.4,65.5,29.84,NNW,347,0.0,1.0,97,0.00,,---,0.00,VWS V14.01,2013-05-22 08:50:00,
2013-05-22 04:52:00,66.3,65.4,29.84,NNW,348,0.0,1.0,97,0.00,,---,0.00,VWS V14.01,2013-05-22 08:52:00,
2013-05-22 04:57:00,66.3,65.7,29.84,ENE,63,0.0,1.0,98,0.00,,---,0.00,VWS V14.01,2013-05-22 08:57:00,
2013-05-22 05:00:00,66.2,65.3,29.84,ENE,63,0.0,1.0,97,0.00,,---,0.00,VWS V14.01,2013-05-22 09:00:00,
2013-05-22 05:02:00,66.0,65.1,29.84,ENE,64,0.0,0.0,97,0.00,,---,0.00,VWS V14.01,2013-05-22 09:02:00,
2013-05-22 05:07:00,66.2,65.6,29.85,ENE,63,0.0,1.0,98,0.00,,---,0.00,VWS V14.01,2013-05-22 09:07:00,
2013-05-22 05:10:00,66.3,65.7,29.85,ENE,60,0.0,1.0,98,0.00,,---,0.00,VWS V14.01,2013-05-22 09:10:00,
2013-05-22 05:12:00,66.3,65.7,29.85,ENE,60,0.0,1.0,98,0.00,,---,0.00,VWS V14.01,2013-05-22 09:12:00,
2013-05-22 05:17:00,66.4,65.8,29.85,ENE,60,1.0,1.0,98,0.00,,---,0.00,VWS V14.01,2013-05-22 09:17:00,
2013-05-22 05:20:00,66.3,65.7,29.85,ENE,62,0.0,1.0,98,0.00,,---,0.00,VWS V14.01,2013-05-22 09:20:00,
2013-05-22 05:22:00,66.3,65.7,29.85,ENE,63,0.0,0.0,98,0.00,,---,0.00,VWS V14.01,2013-05-22 09:22:00,
2013-05-22 05:27:00,65.9,65.0,29.85,ENE,61,0.0,0.0,97,0.00,,---,0.00,VWS V14.01,2013-05-22 09:27:00,
2013-05-22 05:30:00,65.8,64.9,29.85,ENE,61,0.0,0.0,97,0.00,,---,0.00,VWS V14.01,2013-05-22 09:30:00,
2013-05-22 05:32:00,65.6,65.0,29.85,ENE,61,0.0,0.0,98,0.00,,---,0.00,VWS V14.01,2013-05-22 09:32:00,
2013-05-22 05:37:00,65.6,65.0,29.85,ENE,61,0.0,0.0,98,0.00,,---,0.00,VWS V14.01,2013-05-22 09:37:00,
2013-05-22 05:40:00,65.8,65.2,29.85,ENE,61,0.0,0.0,98,0.00,,---,0.00,VWS V14.01,2013-05-22 09:40:00,
2013-05-22 05:42:00,66.1,65.8,29.86,East,91,1.0,1.0,99,0.00,,---,0.00,VWS V14.01,2013-05-22 09:42:00,
2013-05-22 05:47:00,65.8,65.2,29.86,ENE,75,0.0,2.0,98,0.00,,---,0.00,VWS V14.01,2013-05-22 09:47:00,
2013-05-22 05:50:00,65.9,65.3,29.86,ENE,75,0.0,2.0,98,0.00,,---,0.00,VWS V14.01,2013-05-22 09:50:00,
2013-05-22 05:52:00,66.0,65.4,29.86,North,5,0.0,1.0,98,0.00,,---,0.00,VWS V14.01,2013-05-22 09:52:00,
2013-05-22 05:57:00,66.0,65.4,29.86,North,5,0.0,1.0,98,0.00,,---,0.00,VWS V14.01,2013-05-22 09:57:00,
2013-05-22 06:00:00,66.0,65.4,29.86,North,5,0.0,1.0,98,0.00,,---,0.00,VWS V14.01,2013-05-22 10:00:00,
2013-05-22 06:02:00,66.0,65.4,29.86,NNE,33,0.0,0.0,98,0.00,,---,0.00,VWS V14.01,2013-05-22 10:02:00,
2013-05-22 06:07:00,66.0,65.4,29.86,NNE,32,0.0,1.0,98,0.00,,---,0.00,VWS V14.01,2013-05-22 10:07:00,
2013-05-22 06:10:00,66.0,65.4,29.86,NNE,33,0.0,1.0,98,0.00,,---,0.00,VWS V14.01,2013-05-22 10:10:00,
2013-05-22 06:12:00,65.8,65.2,29.87,NNE,32,0.0,0.0,98,0.00,,---,0.00,VWS V14.01,2013-05-22 10:12:00,
2013-05-22 06:17:00,65.6,65.0,29.87,NNE,31,0.0,0.0,98,0.00,,---,0.00,VWS V14.01,2013-05-22 10:17:00,
2013-05-22 06:20:00,65.8,65.2,29.87,NNE,31,0.0,0.0,98,0.00,,---,0.00,VWS V14.01,2013-05-22 10:20:00,
2013-05-22 06:23:00,65.9,65.6,29.87,NNE,32,0.0,0.0,99,0.00,,---,0.00,VWS V14.01,2013-05-22 10:23:00,
2013-05-22 06:28:00,65.6,65.0,29.88,West,271,2.0,2.0,98,0.00,,---,0.00,VWS V14.01,2013-05-22 10:28:00,
2013-05-22 06:30:00,65.8,65.2,29.88,WNW,283,2.0,2.0,98,0.00,,---,0.00,VWS V14.01,2013-05-22 10:30:00,
2013-05-22 06:33:00,66.6,66.3,29.88,West,281,1.0,3.0,99,0.00,,---,0.00,VWS V14.01,2013-05-22 10:33:00,
2013-05-22 06:38:00,67.3,67.0,29.89,West,263,4.0,4.0,99,0.00,,---,0.00,VWS V14.01,2013-05-22 10:38:00,
2013-05-22 06:40:00,67.4,67.1,29.89,WNW,282,4.0,5.0,99,0.00,,---,0.00,VWS V14.01,2013-05-22 10:40:00,
2013-05-22 06:43:00,67.6,67.3,29.89,WNW,284,1.0,4.0,99,0.00,,---,0.00,VWS V14.01,2013-05-22 10:43:00,
2013-05-22 06:48:00,67.9,67.6,29.89,SW,228,2.0,4.0,99,0.00,,---,0.00,VWS V14.01,2013-05-22 10:48:00,
2013-05-22 06:50:00,68.0,67.7,29.89,SW,234,1.0,4.0,99,0.00,,---,0.00,VWS V14.01,2013-05-22 10:50:00,
2013-05-22 06:53:00,68.1,67.8,29.89,SW,226,5.0,5.0,99,0.00,,---,0.00,VWS V14.01,2013-05-22 10:53:00,
2013-05-22 06:58:00,68.3,68.0,29.89,SSW,208,1.0,5.0,99,0.00,,---,0.00,VWS V14.01,2013-05-22 10:58:00,
2013-05-22 07:00:00,68.4,67.8,29.89,SW,231,2.0,5.0,98,0.00,,---,0.00,VWS V14.01,2013-05-22 11:00:00,
2013-05-22 07:03:00,68.5,67.9,29.89,SW,219,1.0,5.0,98,0.00,,---,0.00,VWS V14.01,2013-05-22 11:03:00,
2013-05-22 07:08:00,68.8,68.2,29.90,WSW,252,5.0,7.0,98,0.00,,---,0.00,VWS V14.01,2013-05-22 11:08:00,
2013-05-22 07:10:00,68.8,67.9,29.90,South,179,2.0,7.0,97,0.00,,---,0.00,VWS V14.01,2013-05-22 11:10:00,
2013-05-22 07:13:00,69.0,68.1,29.90,SW,231,2.0,6.0,97,0.00,,---,0.00,VWS V14.01,2013-05-22 11:13:00,
2013-05-22 07:18:00,69.2,68.0,29.90,SW,235,4.0,6.0,96,0.00,,---,0.00,VWS V14.01,2013-05-22 11:18:00,
2013-05-22 07:20:00,69.2,68.0,29.90,WSW,243,7.0,8.0,96,0.00,,---,0.00,VWS V14.01,2013-05-22 11:20:00,
2013-05-22 07:23:00,69.5,68.3,29.90,WSW,246,1.0,7.0,96,0.00,,---,0.00,VWS V14.01,2013-05-22 11:23:00,
2013-05-22 07:28:00,69.8,68.3,29.90,WSW,252,2.0,9.0,95,0.00,,---,0.00,VWS V14.01,2013-05-22 11:28:00,
2013-05-22 07:30:00,70.0,68.5,29.90,WSW,237,2.0,9.0,95,0.00,,---,0.00,VWS V14.01,2013-05-22 11:30:00,
2013-05-22 07:33:00,70.1,68.6,29.90,West,272,3.0,5.0,95,0.00,,---,0.00,VWS V14.01,2013-05-22 11:33:00,
2013-05-22 07:38:00,70.4,68.6,29.91,WSW,256,3.0,6.0,94,0.00,,---,0.00,VWS V14.01,2013-05-22 11:38:00,
2013-05-22 07:40:00,70.5,68.7,29.91,WNW,300,2.0,6.0,94,0.00,,---,0.00,VWS V14.01,2013-05-22 11:40:00,
2013-05-22 07:43:00,70.7,68.6,29.91,West,259,1.0,4.0,93,0.00,,---,0.00,VWS V14.01,2013-05-22 11:43:00,
2013-05-22 07:48:00,70.9,68.8,29.91,WNW,286,3.0,5.0,93,0.00,,---,0.00,VWS V14.01,2013-05-22 11:48:00,
2013-05-22 07:50:00,71.0,68.9,29.91,West,267,1.0,5.0,93,0.00,,---,0.00,VWS V14.01,2013-05-22 11:50:00,
2013-05-22 07:53:00,71.1,69.0,29.91,West,276,2.0,5.0,93,0.00,,---,0.00,VWS V14.01,2013-05-22 11:53:00,
2013-05-22 07:58:00,71.5,69.4,29.91,West,280,4.0,5.0,93,0.00,,---,0.00,VWS V14.01,2013-05-22 11:58:00,
2013-05-22 08:00:00,71.6,69.2,29.91,West,266,4.0,6.0,92,0.00,,---,0.00,VWS V14.01,2013-05-22 12:00:00,
2013-05-22 08:03:00,71.7,68.9,29.91,SW,236,1.0,5.0,91,0.00,,---,0.00,VWS V14.01,2013-05-22 12:03:00,
2013-05-22 08:08:00,72.2,69.4,29.91,West,276,2.0,8.0,91,0.00,,---,0.00,VWS V14.01,2013-05-22 12:08:00,
2013-05-22 08:10:00,72.3,69.5,29.91,SW,216,2.0,8.0,91,0.00,,---,0.00,VWS V14.01,2013-05-22 12:10:00,
2013-05-22 08:13:00,72.6,69.5,29.91,SSW,194,4.0,7.0,90,0.00,,---,0.00,VWS V14.01,2013-05-22 12:13:00,
2013-05-22 08:18:00,72.9,69.1,29.92,South,177,3.0,9.0,88,0.00,,---,0.00,VWS V14.01,2013-05-22 12:18:00,
2013-05-22 08:20:00,73.0,69.6,29.91,SW,236,2.0,9.0,89,0.00,,---,0.00,VWS V14.01,2013-05-22 12:20:00,
2013-05-22 08:23:00,73.1,69.3,29.91,SSW,205,5.0,8.0,88,0.00,,---,0.00,VWS V14.01,2013-05-22 12:23:00,
2013-05-22 08:28:00,73.3,69.2,29.91,West,276,1.0,8.0,87,0.00,,---,0.00,VWS V14.01,2013-05-22 12:28:00,
2013-05-22 08:30:00,73.5,69.7,29.92,South,184,2.0,8.0,88,0.00,,---,0.00,VWS V14.01,2013-05-22 12:30:00,
2013-05-22 08:33:00,73.8,69.3,29.92,South,173,4.0,8.0,86,0.00,,---,0.00,VWS V14.01,2013-05-22 12:33:00,
2013-05-22 08:38:00,74.0,69.2,29.92,SW,225,4.0,8.0,85,0.00,,---,0.00,VWS V14.01,2013-05-22 12:38:00,
2013-05-22 08:40:00,74.0,69.2,29.92,South,177,5.0,8.0,85,0.00,,---,0.00,VWS V14.01,2013-05-22 12:40:00,
2013-05-22 08:43:00,74.2,70.1,29.92,West,278,4.0,7.0,87,0.00,,---,0.00,VWS V14.01,2013-05-22 12:43:00,
2013-05-22 08:48:00,74.1,69.3,29.92,West,267,3.0,7.0,85,0.00,,---,0.00,VWS V14.01,2013-05-22 12:48:00,
2013-05-22 08:50:00,74.0,69.2,29.92,West,259,1.0,7.0,85,0.00,,---,0.00,VWS V14.01,2013-05-22 12:50:00,
2013-05-22 08:53:00,74.1,69.7,29.92,WNW,294,4.0,5.0,86,0.00,,---,0.00,VWS V14.01,2013-05-22 12:53:00,
2013-05-22 08:58:00,74.4,69.3,29.92,West,263,5.0,7.0,84,0.00,,---,0.00,VWS V14.01,2013-05-22 12:58:00,
2013-05-22 09:00:00,74.5,69.7,29.92,WNW,287,4.0,7.0,85,0.00,,---,0.00,VWS V14.01,2013-05-22 13:00:00,
2013-05-22 09:03:00,74.7,69.6,29.92,SW,236,2.0,8.0,84,0.00,,---,0.00,VWS V14.01,2013-05-22 13:03:00,
2013-05-22 09:08:00,74.9,69.7,29.92,WNW,288,4.0,8.0,84,0.00,,---,0.00,VWS V14.01,2013-05-22 13:08:00,
2013-05-22 09:10:00,75.0,70.2,29.92,West,273,3.0,8.0,85,0.00,,---,0.00,VWS V14.01,2013-05-22 13:10:00,
2013-05-22 09:13:00,75.1,69.9,29.92,WSW,255,3.0,7.0,84,0.00,,---,0.00,VWS V14.01,2013-05-22 13:13:00,
2013-05-22 09:18:00,75.3,69.4,29.92,West,263,3.0,7.0,82,0.00,,---,0.00,VWS V14.01,2013-05-22 13:18:00,
2013-05-22 09:20:00,75.4,69.9,29.92,West,280,5.0,7.0,83,0.00,,---,0.00,VWS V14.01,2013-05-22 13:20:00,
2013-05-22 09:23:00,75.4,69.9,29.92,WSW,248,6.0,8.0,83,0.00,,---,0.00,VWS V14.01,2013-05-22 13:23:00,
2013-05-22 09:28:00,75.8,70.3,29.92,WSW,245,2.0,8.0,83,0.00,,---,0.00,VWS V14.01,2013-05-22 13:28:00,
2013-05-22 09:30:00,76.0,70.8,29.92,SW,235,5.0,8.0,84,0.00,,---,0.00,VWS V14.01,2013-05-22 13:30:00,
2013-05-22 09:33:00,76.0,70.5,29.92,WNW,293,6.0,7.0,83,0.00,,---,0.00,VWS V14.01,2013-05-22 13:33:00,
2013-05-22 09:38:00,75.9,70.0,29.92,SSW,212,1.0,9.0,82,0.00,,---,0.00,VWS V14.01,2013-05-22 13:38:00,
2013-05-22 09:40:00,76.0,70.1,29.92,WSW,245,2.0,9.0,82,0.00,,---,0.00,VWS V14.01,2013-05-22 13:40:00,
2013-05-22 09:43:00,76.4,70.9,29.92,South,190,5.0,6.0,83,0.00,,---,0.00,VWS V14.01,2013-05-22 13:43:00,
2013-05-22 09:48:00,76.6,70.3,29.91,SW,215,1.0,7.0,81,0.00,,---,0.00,VWS V14.01,2013-05-22 13:48:00,
2013-05-22 09:50:00,76.6,70.3,29.91,SW,214,2.0,7.0,81,0.00,,---,0.00,VWS V14.01,2013-05-22 13:50:00,
2013-05-22 09:53:00,76.8,70.5,29.91,SSW,194,1.0,6.0,81,0.00,,---,0.00,VWS V14.01,2013-05-22 13:53:00,
2013-05-22 09:58:00,76.9,69.5,29.91,SW,217,5.0,9.0,78,0.00,,---,0.00,VWS V14.01,2013-05-22 13:58:00,
2013-05-22 10:00:00,76.9,69.5,29.91,SW,228,2.0,9.0,78,0.00,,---,0.00,VWS V14.01,2013-05-22 14:00:00,
2013-05-22 10:03:00,77.0,70.4,29.91,West,281,2.0,6.0,80,0.00,,---,0.00,VWS V14.01,2013-05-22 14:03:00,
2013-05-22 10:08:00,77.3,70.3,29.91,West,267,5.0,7.0,79,0.00,,---,0.00,VWS V14.01,2013-05-22 14:08:00,
2013-05-22 10:10:00,77.3,69.9,29.91,West,260,4.0,7.0,78,0.00,,---,0.00,VWS V14.01,2013-05-22 14:10:00,
2013-05-22 10:13:00,77.4,69.6,29.91,West,269,4.0,6.0,77,0.00,,---,0.00,VWS V14.01,2013-05-22 14:13:00,
2013-05-22 10:18:00,77.5,69.7,29.91,West,278,4.0,8.0,77,0.00,,---,0.00,VWS V14.01,2013-05-22 14:18:00,
2013-05-22 10:20:00,77.5,70.8,29.91,SSW,212,4.0,8.0,80,0.00,,---,0.00,VWS V14.01,2013-05-22 14:20:00,
2013-05-22 10:23:00,77.7,69.5,29.91,WSW,238,2.0,5.0,76,0.00,,---,0.00,VWS V14.01,2013-05-22 14:23:00,
2013-05-22 10:28:00,78.1,70.3,29.91,WSW,243,6.0,7.0,77,0.00,,---,0.00,VWS V14.01,2013-05-22 14:28:00,
2013-05-22 10:30:00,78.1,69.9,29.91,WNW,283,3.0,8.0,76,0.00,,---,0.00,VWS V14.01,2013-05-22 14:30:00,
2013-05-22 10:33:00,78.1,69.5,29.91,WSW,242,2.0,10.0,75,0.00,,---,0.00,VWS V14.01,2013-05-22 14:33:00,
2013-05-22 10:38:00,78.5,70.3,29.91,SW,215,2.0,10.0,76,0.00,,---,0.00,VWS V14.01,2013-05-22 14:38:00,
2013-05-22 10:40:00,78.6,69.6,29.91,SSW,203,5.0,10.0,74,0.00,,---,0.00,VWS V14.01,2013-05-22 14:40:00,
2013-05-22 10:43:00,79.0,70.4,29.91,SSW,208,3.0,7.0,75,0.00,,---,0.00,VWS V14.01,2013-05-22 14:43:00,
2013-05-22 10:48:00,79.6,71.0,29.90,WNW,290,2.0,7.0,75,0.00,,---,0.00,VWS V14.01,2013-05-22 14:48:00,
2013-05-22 10:50:00,79.7,70.7,29.90,SSE,153,4.0,7.0,74,0.00,,---,0.00,VWS V14.01,2013-05-22 14:50:00,
2013-05-22 10:53:00,80.1,71.1,29.90,SW,236,0.0,7.0,74,0.00,,---,0.00,VWS V14.01,2013-05-22 14:53:00,
2013-05-22 10:58:00,81.0,71.9,29.90,SW,221,3.0,7.0,74,0.00,,---,0.00,VWS V14.01,2013-05-22 14:58:00,
2013-05-22 11:00:00,81.1,72.0,29.90,SSE,165,1.0,7.0,74,0.00,,---,0.00,VWS V14.01,2013-05-22 15:00:00,
2013-05-22 11:03:00,81.4,71.5,29.90,SW,215,3.0,4.0,72,0.00,,---,0.00,VWS V14.01,2013-05-22 15:03:00,
2013-05-22 11:08:00,81.7,72.2,29.90,South,178,4.0,5.0,73,0.00,,---,0.00,VWS V14.01,2013-05-22 15:08:00,
2013-05-22 11:10:00,81.8,70.6,29.90,SE,126,5.0,5.0,69,0.00,,---,0.00,VWS V14.01,2013-05-22 15:10:00,
2013-05-22 11:13:00,81.9,70.7,29.90,West,271,4.0,8.0,69,0.00,,---,0.00,VWS V14.01,2013-05-22 15:13:00,
2013-05-22 11:18:00,81.8,70.2,29.90,SSE,159,3.0,8.0,68,0.00,,---,0.00,VWS V14.01,2013-05-22 15:18:00,
2013-05-22 11:20:00,81.8,71.1,29.90,South,170,5.0,8.0,70,0.00,,---,0.00,VWS V14.01,2013-05-22 15:20:00,
2013-05-22 11:23:00,82.1,71.3,29.90,SW,226,0.0,5.0,70,0.00,,---,0.00,VWS V14.01,2013-05-22 15:23:00,
2013-05-22 11:28:00,82.3,71.5,29.90,SSE,165,3.0,6.0,70,0.00,,---,0.00,VWS V14.01,2013-05-22 15:28:00,
2013-05-22 11:30:00,82.3,71.5,29.90,SE,141,5.0,6.0,70,0.00,,---,0.00,VWS V14.01,2013-05-22 15:30:00,
2013-05-22 11:33:00,82.1,71.3,29.90,SSW,199,7.0,9.0,70,0.00,,---,0.00,VWS V14.01,2013-05-22 15:33:00,
2013-05-22 11:38:00,82.1,70.5,29.90,SSE,155,0.0,9.0,68,0.00,,---,0.00,VWS V14.01,2013-05-22 15:38:00,
2013-05-22 11:40:00,82.1,70.9,29.90,SSE,150,1.0,9.0,69,0.00,,---,0.00,VWS V14.01,2013-05-22 15:40:00,
2013-05-22 11:43:00,82.6,71.8,29.90,WSW,255,5.0,7.0,70,0.00,,---,0.00,VWS V14.01,2013-05-22 15:43:00,
2013-05-22 11:48:00,82.5,70.4,29.90,West,264,5.0,10.0,67,0.00,,---,0.00,VWS V14.01,2013-05-22 15:48:00,
2013-05-22 11:50:00,82.4,70.3,29.90,WSW,243,2.0,10.0,67,0.00,,---,0.00,VWS V14.01,2013-05-22 15:50:00,
2013-05-22 11:53:00,82.5,71.7,29.90,SW,225,4.0,7.0,70,0.00,,---,0.00,VWS V14.01,2013-05-22 15:53:00,
2013-05-22 11:58:00,82.9,70.8,29.90,SSW,210,5.0,10.0,67,0.00,,---,0.00,VWS V14.01,2013-05-22 15:58:00,
2013-05-22 12:00:00,82.9,70.8,29.90,South,188,4.0,10.0,67,0.00,,---,0.00,VWS V14.01,2013-05-22 16:00:00,
2013-05-22 12:03:00,82.8,69.4,29.90,SSW,207,1.0,6.0,64,0.00,,---,0.00,VWS V14.01,2013-05-22 16:03:00,
2013-05-22 12:08:00,82.9,72.1,29.89,West,273,1.0,8.0,70,0.00,,---,0.00,VWS V14.01,2013-05-22 16:08:00,
2013-05-22 12:10:00,83.0,72.2,29.89,West,259,3.0,8.0,70,0.00,,---,0.00,VWS V14.01,2013-05-22 16:10:00,
2013-05-22 12:13:00,83.4,71.7,29.89,West,260,5.0,8.0,68,0.00,,---,0.00,VWS V14.01,2013-05-22 16:13:00,
2013-05-22 12:18:00,83.3,70.8,29.89,SW,214,2.0,10.0,66,0.00,,---,0.00,VWS V14.01,2013-05-22 16:18:00,
2013-05-22 12:20:00,83.3,71.6,29.89,SSE,155,4.0,10.0,68,0.00,,---,0.00,VWS V14.01,2013-05-22 16:20:00,
2013-05-22 12:23:00,83.2,70.2,29.89,SE,136,8.0,10.0,65,0.00,,---,0.00,VWS V14.01,2013-05-22 16:23:00,
2013-05-22 12:28:00,83.4,69.9,29.89,SE,141,2.0,10.0,64,0.00,,---,0.00,VWS V14.01,2013-05-22 16:28:00,
2013-05-22 12:30:00,83.5,71.4,29.89,SW,222,3.0,10.0,67,0.00,,---,0.00,VWS V14.01,2013-05-22 16:30:00,
2013-05-22 12:33:00,83.7,72.5,29.89,WSW,255,3.0,9.0,69,0.00,,---,0.00,VWS V14.01,2013-05-22 16:33:00,
2013-05-22 12:38:00,83.6,70.6,29.89,SW,235,5.0,9.0,65,0.00,,---,0.00,VWS V14.01,2013-05-22 16:38:00,
2013-05-22 12:40:00,83.6,70.6,29.89,WSW,248,2.0,9.0,65,0.00,,---,0.00,VWS V14.01,2013-05-22 16:40:00,
2013-05-22 12:43:00,83.5,70.5,29.89,West,273,4.0,10.0,65,0.00,,---,0.00,VWS V14.01,2013-05-22 16:43:00,
2013-05-22 12:48:00,83.7,71.6,29.89,SSW,208,4.0,10.0,67,0.00,,---,0.00,VWS V14.01,2013-05-22 16:48:00,
2013-05-22 12:50:00,83.9,71.3,29.89,South,169,4.0,10.0,66,0.00,,---,0.00,VWS V14.01,2013-05-22 16:50:00,
2013-05-22 12:53:00,84.2,70.7,29.89,SSW,195,5.0,8.0,64,0.00,,---,0.00,VWS V14.01,2013-05-22 16:53:00,
2013-05-22 12:58:00,84.6,71.6,29.89,SW,219,3.0,8.0,65,0.00,,---,0.00,VWS V14.01,2013-05-22 16:58:00,
2013-05-22 13:00:00,84.7,71.6,29.89,SW,226,2.0,8.0,65,0.00,,---,0.00,VWS V14.01,2013-05-22 17:00:00,
2013-05-22 13:03:00,84.8,70.8,29.88,South,191,7.0,9.0,63,0.00,,---,0.00,VWS V14.01,2013-05-22 17:03:00,
2013-05-22 13:08:00,84.9,71.8,29.88,SSE,166,4.0,9.0,65,0.00,,---,0.00,VWS V14.01,2013-05-22 17:08:00,
2013-05-22 13:10:00,84.9,70.9,29.88,SSE,148,4.0,9.0,63,0.00,,---,0.00,VWS V14.01,2013-05-22 17:10:00,
2013-05-22 13:13:00,85.1,72.5,29.87,SE,143,9.0,9.0,66,0.00,,---,0.00,VWS V14.01,2013-05-22 17:13:00,
2013-05-22 13:18:00,85.0,71.9,29.87,SW,225,5.0,9.0,65,0.00,,---,0.00,VWS V14.01,2013-05-22 17:18:00,
2013-05-22 13:20:00,84.9,72.7,29.87,SE,135,6.0,9.0,67,0.00,,---,0.00,VWS V14.01,2013-05-22 17:20:00,
2013-05-22 13:23:00,85.1,71.6,29.87,SE,141,4.0,12.0,64,0.00,,---,0.00,VWS V14.01,2013-05-22 17:23:00,
2013-05-22 13:28:00,85.2,70.7,29.87,SSE,162,5.0,12.0,62,0.00,,---,0.00,VWS V14.01,2013-05-22 17:28:00,
2013-05-22 13:30:00,85.2,72.6,29.87,ESE,122,5.0,12.0,66,0.00,,---,0.00,VWS V14.01,2013-05-22 17:30:00,
2013-05-22 13:33:00,85.3,70.8,29.87,South,173,7.0,11.0,62,0.00,,---,0.00,VWS V14.01,2013-05-22 17:33:00,
2013-05-22 13:38:00,85.3,71.3,29.87,SSW,205,6.0,11.0,63,0.00,,---,0.00,VWS V14.01,2013-05-22 17:38:00,
2013-05-22 13:40:00,85.3,71.3,29.86,SSW,198,5.0,11.0,63,0.00,,---,0.00,VWS V14.01,2013-05-22 17:40:00,
2013-05-22 13:43:00,85.3,71.8,29.86,SW,226,8.0,12.0,64,0.00,,---,0.00,VWS V14.01,2013-05-22 17:43:00,
2013-05-22 13:48:00,85.2,70.7,29.86,SE,138,9.0,12.0,62,0.00,,---,0.00,VWS V14.01,2013-05-22 17:48:00,
2013-05-22 13:50:00,85.1,70.2,29.86,South,169,4.0,12.0,61,0.00,,---,0.00,VWS V14.01,2013-05-22 17:50:00,
2013-05-22 13:53:00,85.1,69.7,29.86,SSW,193,6.0,12.0,60,0.00,,---,0.00,VWS V14.01,2013-05-22 17:53:00,
2013-05-22 13:58:00,85.2,70.2,29.86,WNW,285,3.0,12.0,61,0.00,,---,0.00,VWS V14.01,2013-05-22 17:58:00,
2013-05-22 14:00:00,85.1,70.6,29.86,SW,224,7.0,12.0,62,0.00,,---,0.00,VWS V14.01,2013-05-22 18:00:00,
2013-05-22 14:03:00,85.2,70.7,29.86,SW,226,6.0,10.0,62,0.00,,---,0.00,VWS V14.01,2013-05-22 18:03:00,
2013-05-22 14:08:00,85.2,70.2,29.85,SW,225,6.0,13.0,61,0.00,,---,0.00,VWS V14.01,2013-05-22 18:08:00,
2013-05-22 14:10:00,85.2,71.2,29.86,WSW,238,5.0,13.0,63,0.00,,---,0.00,VWS V14.01,2013-05-22 18:10:00,
2013-05-22 14:13:00,85.4,72.8,29.85,WSW,250,5.0,10.0,66,0.00,,---,0.00,VWS V14.01,2013-05-22 18:13:00,
2013-05-22 14:18:00,85.5,73.3,29.85,SW,219,5.0,10.0,67,0.00,,---,0.00,VWS V14.01,2013-05-22 18:18:00,
2013-05-22 14:20:00,85.6,72.5,29.85,WSW,238,4.0,10.0,65,0.00,,---,0.00,VWS V14.01,2013-05-22 18:20:00,
2013-05-22 14:23:00,85.5,70.0,29.85,SW,215,8.0,11.0,60,0.00,,---,0.00,VWS V14.01,2013-05-22 18:23:00,
2013-05-22 14:28:00,85.7,72.1,29.85,WSW,248,7.0,12.0,64,0.00,,---,0.00,VWS V14.01,2013-05-22 18:28:00,
2013-05-22 14:30:00,85.6,71.1,29.85,SSW,205,6.0,12.0,62,0.00,,---,0.00,VWS V14.01,2013-05-22 18:30:00,
2013-05-22 14:33:00,85.6,72.0,29.85,SW,219,9.0,10.0,64,0.00,,---,0.00,VWS V14.01,2013-05-22 18:33:00,
2013-05-22 14:38:00,85.5,71.9,29.85,SSW,207,7.0,11.0,64,0.00,,---,0.00,VWS V14.01,2013-05-22 18:38:00,
2013-05-22 14:40:00,85.5,72.4,29.85,South,191,9.0,11.0,65,0.00,,---,0.00,VWS V14.01,2013-05-22 18:40:00,
2013-05-22 14:43:00,85.7,72.1,29.85,SW,221,6.0,11.0,64,0.00,,---,0.00,VWS V14.01,2013-05-22 18:43:00,
2013-05-22 14:48:00,85.7,72.6,29.85,SW,215,4.0,12.0,65,0.00,,---,0.00,VWS V14.01,2013-05-22 18:48:00,
2013-05-22 14:50:00,85.7,71.2,29.85,South,183,6.0,12.0,62,0.00,,---,0.00,VWS V14.01,2013-05-22 18:50:00,
2013-05-22 14:53:00,85.8,72.2,29.85,WSW,238,10.0,11.0,64,0.00,,---,0.00,VWS V14.01,2013-05-22 18:53:00,
2013-05-22 14:58:00,85.9,73.2,29.85,SSE,155,6.0,14.0,66,0.00,,---,0.00,VWS V14.01,2013-05-22 18:58:00,
2013-05-22 15:00:00,85.8,71.8,29.85,SSW,209,5.0,14.0,63,0.00,,---,0.00,VWS V14.01,2013-05-22 19:00:00,
2013-05-22 15:03:00,85.8,71.3,29.85,SW,217,7.0,10.0,62,0.00,,---,0.00,VWS V14.01,2013-05-22 19:03:00,
2013-05-22 15:08:00,85.8,69.8,29.85,SSW,212,7.0,13.0,59,0.00,,---,0.00,VWS V14.01,2013-05-22 19:08:00,
2013-05-22 15:10:00,85.8,69.8,29.85,SW,215,10.0,13.0,59,0.00,,---,0.00,VWS V14.01,2013-05-22 19:10:00,
2013-05-22 15:13:00,85.9,71.8,29.85,SSE,165,4.0,11.0,63,0.00,,---,0.00,VWS V14.01,2013-05-22 19:13:00,
2013-05-22 15:18:00,86.2,71.2,29.84,SSW,207,9.0,11.0,61,0.00,,---,0.00,VWS V14.01,2013-05-22 19:18:00,
2013-05-22 15:20:00,86.2,70.2,29.85,SSW,211,6.0,11.0,59,0.00,,---,0.00,VWS V14.01,2013-05-22 19:20:00,
2013-05-22 15:23:00,86.2,70.2,29.84,SW,233,11.0,11.0,59,0.00,,---,0.00,VWS V14.01,2013-05-22 19:23:00,
2013-05-22 15:28:00,86.0,69.5,29.84,SSE,155,10.0,14.0,58,0.00,,---,0.00,VWS V14.01,2013-05-22 19:28:00,
2013-05-22 15:30:00,86.0,69.5,29.84,South,186,5.0,14.0,58,0.00,,---,0.00,VWS V14.01,2013-05-22 19:30:00,
2013-05-22 15:33:00,86.0,69.0,29.83,South,169,5.0,14.0,57,0.00,,---,0.00,VWS V14.01,2013-05-22 19:33:00,
2013-05-22 15:38:00,86.1,71.6,29.83,SSW,197,5.0,14.0,62,0.00,,---,0.00,VWS V14.01,2013-05-22 19:38:00,
2013-05-22 15:40:00,86.0,71.5,29.83,SSE,162,8.0,14.0,62,0.00,,---,0.00,VWS V14.01,2013-05-22 19:40:00,
2013-05-22 15:43:00,85.7,70.7,29.83,South,170,8.0,11.0,61,0.00,,---,0.00,VWS V14.01,2013-05-22 19:43:00,
2013-05-22 15:48:00,85.6,70.1,29.83,SSW,200,13.0,16.0,60,0.00,,---,0.00,VWS V14.01,2013-05-22 19:48:00,
2013-05-22 15:50:00,85.4,69.4,29.83,SW,230,5.0,16.0,59,0.00,,---,0.00,VWS V14.01,2013-05-22 19:50:00,
2013-05-22 15:53:00,85.2,69.8,29.83,South,179,5.0,13.0,60,0.00,,---,0.00,VWS V14.01,2013-05-22 19:53:00,
2013-05-22 15:58:00,85.5,69.6,29.82,South,179,5.0,13.0,59,0.00,,---,0.00,VWS V14.01,2013-05-22 19:58:00,
2013-05-22 16:00:00,85.6,70.1,29.82,SSW,200,7.0,13.0,60,0.00,,---,0.00,VWS V14.01,2013-05-22 20:00:00,
2013-05-22 16:03:00,85.8,70.8,29.82,South,170,6.0,11.0,61,0.00,,---,0.00,VWS V14.01,2013-05-22 20:03:00,
2013-05-22 16:08:00,86.3,70.8,29.82,ESE,122,7.0,16.0,60,0.00,,---,0.00,VWS V14.01,2013-05-22 20:08:00,
2013-05-22 16:10:00,86.2,71.2,29.82,SW,225,9.0,16.0,61,0.00,,---,0.00,VWS V14.01,2013-05-22 20:10:00,
2013-05-22 16:13:00,85.9,71.4,29.82,SW,214,7.0,12.0,62,0.00,,---,0.00,VWS V14.01,2013-05-22 20:13:00,
2013-05-22 16:18:00,85.9,70.9,29.82,SW,226,7.0,16.0,61,0.00,,---,0.00,VWS V14.01,2013-05-22 20:18:00,
2013-05-22 16:20:00,85.8,70.8,29.82,SSW,205,6.0,16.0,61,0.00,,---,0.00,VWS V14.01,2013-05-22 20:20:00,
2013-05-22 16:23:00,85.6,70.6,29.82,SW,214,11.0,11.0,61,0.00,,---,0.00,VWS V14.01,2013-05-22 20:23:00,
2013-05-22 16:28:00,85.7,71.2,29.81,SSW,213,7.0,12.0,62,0.00,,---,0.00,VWS V14.01,2013-05-22 20:28:00,
2013-05-22 16:30:00,85.8,70.8,29.81,SSW,205,3.0,12.0,61,0.00,,---,0.00,VWS V14.01,2013-05-22 20:30:00,
2013-05-22 16:33:00,85.9,70.9,29.81,South,177,6.0,13.0,61,0.00,,---,0.00,VWS V14.01,2013-05-22 20:33:00,
2013-05-22 16:38:00,85.8,70.8,29.81,SSE,165,7.0,13.0,61,0.00,,---,0.00,VWS V14.01,2013-05-22 20:38:00,
2013-05-22 16:40:00,85.8,71.3,29.81,South,177,5.0,13.0,62,0.00,,---,0.00,VWS V14.01,2013-05-22 20:40:00,
2013-05-22 16:43:00,85.5,71.0,29.82,SW,230,4.0,13.0,62,0.00,,---,0.00,VWS V14.01,2013-05-22 20:43:00,
2013-05-22 16:48:00,85.2,71.2,29.81,SSE,168,9.0,15.0,63,0.00,,---,0.00,VWS V14.01,2013-05-22 20:48:00,
2013-05-22 16:50:00,85.2,71.2,29.81,South,189,6.0,15.0,63,0.00,,---,0.00,VWS V14.01,2013-05-22 20:50:00,
2013-05-22 16:53:00,85.3,71.3,29.81,SW,222,8.0,12.0,63,0.00,,---,0.00,VWS V14.01,2013-05-22 20:53:00,
2013-05-22 16:58:00,85.4,70.9,29.81,SSW,195,10.0,12.0,62,0.00,,---,0.00,VWS V14.01,2013-05-22 20:58:00,
2013-05-22 17:00:00,85.4,70.9,29.81,SSW,212,10.0,14.0,62,0.00,,---,0.00,VWS V14.01,2013-05-22 21:00:00,
2013-05-22 17:03:00,85.2,71.7,29.81,SSE,155,6.0,11.0,64,0.00,,---,0.00,VWS V14.01,2013-05-22 21:03:00,
2013-05-22 17:09:00,85.2,71.7,29.81,SW,226,6.0,13.0,64,0.00,,---,0.00,VWS V14.01,2013-05-22 21:09:00,
2013-05-22 17:10:00,85.2,71.7,29.81,SW,228,10.0,13.0,64,0.00,,---,0.00,VWS V14.01,2013-05-22 21:10:00,
2013-05-22 17:14:00,85.5,71.9,29.81,SSW,203,3.0,13.0,64,0.00,,---,0.00,VWS V14.01,2013-05-22 21:14:00,
2013-05-22 17:19:00,85.5,71.0,29.81,SSE,158,6.0,17.0,62,0.00,,---,0.00,VWS V14.01,2013-05-22 21:19:00,
2013-05-22 17:20:00,85.5,71.9,29.81,SW,226,9.0,17.0,64,0.00,,---,0.00,VWS V14.01,2013-05-22 21:20:00,
2013-05-22 17:24:00,85.7,72.1,29.81,South,170,5.0,12.0,64,0.00,,---,0.00,VWS V14.01,2013-05-22 21:24:00,
2013-05-22 17:29:00,85.8,70.8,29.81,SW,231,5.0,12.0,61,0.00,,---,0.00,VWS V14.01,2013-05-22 21:29:00,
2013-05-22 17:30:00,85.8,72.7,29.81,SSW,209,5.0,12.0,65,0.00,,---,0.00,VWS V14.01,2013-05-22 21:30:00,
2013-05-22 17:34:00,85.9,70.4,29.80,SSW,201,6.0,14.0,60,0.00,,---,0.00,VWS V14.01,2013-05-22 21:34:00,
2013-05-22 17:39:00,85.5,71.0,29.81,SSW,203,7.0,14.0,62,0.00,,---,0.00,VWS V14.01,2013-05-22 21:39:00,
2013-05-22 17:40:00,85.5,71.0,29.81,SSW,193,4.0,14.0,62,0.00,,---,0.00,VWS V14.01,2013-05-22 21:40:00,
2013-05-22 17:44:00,85.2,70.7,29.81,SW,233,11.0,11.0,62,0.00,,---,0.00,VWS V14.01,2013-05-22 21:44:00,
2013-05-22 17:49:00,84.7,71.2,29.81,SSW,207,4.0,14.0,64,0.00,,---,0.00,VWS V14.01,2013-05-22 21:49:00,
2013-05-22 17:50:00,84.7,71.2,29.81,SW,219,8.0,14.0,64,0.00,,---,0.00,VWS V14.01,2013-05-22 21:50:00,
2013-05-22 17:54:00,84.5,71.4,29.81,SW,222,3.0,13.0,65,0.00,,---,0.00,VWS V14.01,2013-05-22 21:54:00,
2013-05-22 17:59:00,83.9,71.3,29.81,SE,145,5.0,13.0,66,0.00,,---,0.00,VWS V14.01,2013-05-22 21:59:00,
2013-05-22 18:00:00,83.8,71.2,29.81,SSW,207,4.0,13.0,66,0.00,,---,0.00,VWS V14.01,2013-05-22 22:00:00,
2013-05-22 18:04:00,83.3,71.2,29.81,SW,215,4.0,8.0,67,0.00,,---,0.00,VWS V14.01,2013-05-22 22:04:00,
2013-05-22 18:09:00,83.4,70.9,29.81,South,186,6.0,11.0,66,0.00,,---,0.00,VWS V14.01,2013-05-22 22:09:00,
2013-05-22 18:10:00,83.4,71.3,29.81,SSW,207,7.0,11.0,67,0.00,,---,0.00,VWS V14.01,2013-05-22 22:10:00,
2013-05-22 18:14:00,83.6,71.5,29.82,SSW,207,5.0,11.0,67,0.00,,---,0.00,VWS V14.01,2013-05-22 22:14:00,
2013-05-22 18:19:00,83.5,70.9,29.82,SSW,212,8.0,12.0,66,0.00,,---,0.00,VWS V14.01,2013-05-22 22:19:00,
2013-05-22 18:20:00,83.5,70.9,29.82,SSW,209,4.0,12.0,66,0.00,,---,0.00,VWS V14.01,2013-05-22 22:20:00,
2013-05-22 18:24:00,83.0,70.9,29.82,SSW,195,4.0,15.0,67,0.00,,---,0.00,VWS V14.01,2013-05-22 22:24:00,
2013-05-22 18:29:00,82.8,71.2,29.82,South,183,8.0,15.0,68,0.00,,---,0.00,VWS V14.01,2013-05-22 22:29:00,
2013-05-22 18:30:00,82.8,71.2,29.82,SW,217,7.0,15.0,68,0.00,,---,0.00,VWS V14.01,2013-05-22 22:30:00,
2013-05-22 18:34:00,83.0,71.4,29.82,South,170,4.0,7.0,68,0.00,,---,0.00,VWS V14.01,2013-05-22 22:34:00,
2013-05-22 18:39:00,83.1,71.4,29.82,SSW,203,10.0,13.0,68,0.00,,---,0.00,VWS V14.01,2013-05-22 22:39:00,
2013-05-22 18:40:00,83.1,71.4,29.82,South,184,4.0,13.0,68,0.00,,---,0.00,VWS V14.01,2013-05-22 22:40:00,
2013-05-22 18:44:00,82.8,71.2,29.82,South,184,7.0,13.0,68,0.00,,---,0.00,VWS V14.01,2013-05-22 22:44:00,
2013-05-22 18:49:00,82.4,70.8,29.82,South,170,3.0,13.0,68,0.00,,---,0.00,VWS V14.01,2013-05-22 22:49:00,
2013-05-22 18:50:00,82.4,70.8,29.82,SW,214,4.0,13.0,68,0.00,,---,0.00,VWS V14.01,2013-05-22 22:50:00,
2013-05-22 18:54:00,81.9,70.7,29.82,South,173,4.0,9.0,69,0.00,,---,0.00,VWS V14.01,2013-05-22 22:54:00,
2013-05-22 18:59:00,81.4,70.7,29.82,SW,217,5.0,9.0,70,0.00,,---,0.00,VWS V14.01,2013-05-22 22:59:00,
2013-05-22 19:00:00,81.4,70.7,29.82,SSW,207,3.0,9.0,70,0.00,,---,0.00,VWS V14.01,2013-05-22 23:00:00,
2013-05-22 19:04:00,80.9,70.6,29.82,SE,131,2.0,9.0,71,0.00,,---,0.00,VWS V14.01,2013-05-22 23:04:00,
2013-05-22 19:09:00,80.5,70.7,29.82,WSW,239,4.0,9.0,72,0.00,,---,0.00,VWS V14.01,2013-05-22 23:09:00,
2013-05-22 19:10:00,80.5,70.2,29.82,SW,219,3.0,9.0,71,0.00,,---,0.00,VWS V14.01,2013-05-22 23:10:00,
2013-05-22 19:14:00,80.2,70.4,29.82,SW,221,1.0,9.0,72,0.00,,---,0.00,VWS V14.01,2013-05-22 23:14:00,
2013-05-22 19:19:00,80.0,70.2,29.82,SSE,166,3.0,9.0,72,0.00,,---,0.00,VWS V14.01,2013-05-22 23:19:00,
2013-05-22 19:20:00,80.0,70.2,29.83,South,174,3.0,9.0,72,0.00,,---,0.00,VWS V14.01,2013-05-22 23:20:00,
2013-05-22 19:24:00,79.8,70.4,29.83,SSW,212,2.0,6.0,73,0.00,,---,0.00,VWS V14.01,2013-05-22 23:24:00,
2013-05-22 19:29:00,79.6,70.2,29.83,South,178,2.0,6.0,73,0.00,,---,0.00,VWS V14.01,2013-05-22 23:29:00,
2013-05-22 19:30:00,79.6,70.2,29.83,SSW,200,1.0,6.0,73,0.00,,---,0.00,VWS V14.01,2013-05-22 23:30:00,
2013-05-22 19:34:00,79.3,70.3,29.83,SW,228,2.0,5.0,74,0.00,,---,0.00,VWS V14.01,2013-05-22 23:34:00,
2013-05-22 19:39:00,79.2,70.2,29.83,SSW,197,3.0,7.0,74,0.00,,---,0.00,VWS V14.01,2013-05-22 23:39:00,
2013-05-22 19:40:00,79.2,70.2,29.83,SSW,211,2.0,7.0,74,0.00,,---,0.00,VWS V14.01,2013-05-22 23:40:00,
2013-05-22 19:44:00,79.1,70.1,29.83,SSW,201,4.0,8.0,74,0.00,,---,0.00,VWS V14.01,2013-05-22 23:44:00,
2013-05-22 19:49:00,79.0,70.0,29.83,SSW,193,5.0,8.0,74,0.00,,---,0.00,VWS V14.01,2013-05-22 23:49:00,
2013-05-22 19:50:00,79.0,70.0,29.83,South,190,5.0,8.0,74,0.00,,---,0.00,VWS V14.01,2013-05-22 23:50:00,
2013-05-22 19:54:00,78.8,70.2,29.83,South,181,5.0,8.0,75,0.00,,---,0.00,VWS V14.01,2013-05-22 23:54:00,
2013-05-22 19:59:00,78.8,70.2,29.83,SW,215,3.0,8.0,75,0.00,,---,0.00,VWS V14.01,2013-05-22 23:59:00,
2013-05-22 20:00:00,78.8,70.2,29.83,SSE,166,5.0,8.0,75,0.00,,---,0.00,VWS V14.01,2013-05-23 00:00:00,
2013-05-22 20:04:00,78.7,70.1,29.83,SSW,195,3.0,7.0,75,0.00,,---,0.00,VWS V14.01,2013-05-23 00:04:00,
2013-05-22 20:09:00,78.6,70.0,29.84,SSW,208,5.0,7.0,75,0.00,,---,0.00,VWS V14.01,2013-05-23 00:09:00,
2013-05-22 20:10:00,78.6,70.0,29.84,SSW,206,4.0,7.0,75,0.00,,---,0.00,VWS V14.01,2013-05-23 00:10:00,
2013-05-22 20:14:00,78.6,70.0,29.84,SSW,204,4.0,12.0,75,0.00,,---,0.00,VWS V14.01,2013-05-23 00:14:00,
2013-05-22 20:19:00,78.5,70.3,29.85,SW,229,8.0,12.0,76,0.00,,---,0.00,VWS V14.01,2013-05-23 00:19:00,
2013-05-22 20:20:00,78.5,69.9,29.85,SW,226,6.0,12.0,75,0.00,,---,0.00,VWS V14.01,2013-05-23 00:20:00,
2013-05-22 20:24:00,78.5,70.3,29.85,SW,224,3.0,7.0,76,0.00,,---,0.00,VWS V14.01,2013-05-23 00:24:00,
2013-05-22 20:29:00,78.4,69.8,29.85,West,270,2.0,8.0,75,0.00,,---,0.00,VWS V14.01,2013-05-23 00:29:00,
2013-05-22 20:30:00,78.4,69.8,29.86,WSW,255,4.0,8.0,75,0.00,,---,0.00,VWS V14.01,2013-05-23 00:30:00,
2013-05-22 20:34:00,77.9,66.5,29.87,WNW,300,13.0,19.0,68,0.00,,---,0.00,VWS V14.01,2013-05-23 00:34:00,
2013-05-22 20:39:00,76.6,64.4,29.87,West,281,6.0,19.0,66,0.00,,---,0.00,VWS V14.01,2013-05-23 00:39:00,
2013-05-22 20:40:00,76.6,64.4,29.87,West,278,4.0,19.0,66,0.00,,---,0.00,VWS V14.01,2013-05-23 00:40:00,
2013-05-22 20:44:00,75.8,64.5,29.88,West,269,3.0,10.0,68,0.00,,---,0.00,VWS V14.01,2013-05-23 00:44:00,
2013-05-22 20:49:00,75.3,64.0,29.88,West,276,6.0,12.0,68,0.00,,---,0.00,VWS V14.01,2013-05-23 00:49:00,
2013-05-22 20:50:00,75.3,64.0,29.88,West,266,6.0,12.0,68,0.00,,---,0.00,VWS V14.01,2013-05-23 00:50:00,
2013-05-22 20:54:00,74.8,64.0,29.88,West,277,5.0,11.0,69,0.00,,---,0.00,VWS V14.01,2013-05-23 00:54:00,
2013-05-22 20:59:00,74.2,63.4,29.88,WNW,294,8.0,12.0,69,0.00,,---,0.00,VWS V14.01,2013-05-23 00:59:00,
2013-05-22 21:00:00,74.2,63.4,29.88,WNW,302,9.0,12.0,69,0.00,,---,0.00,VWS V14.01,2013-05-23 01:00:00,
2013-05-22 21:04:00,73.4,63.8,29.88,WNW,294,4.0,13.0,72,0.00,,---,0.00,VWS V14.01,2013-05-23 01:04:00,
2013-05-22 21:09:00,72.6,63.8,29.88,WNW,302,4.0,13.0,74,0.00,,---,0.00,VWS V14.01,2013-05-23 01:09:00,
2013-05-22 21:10:00,72.6,63.8,29.88,WNW,302,4.0,13.0,74,0.00,,---,0.00,VWS V14.01,2013-05-23 01:10:00,
2013-05-22 21:14:00,71.9,63.9,29.88,West,274,2.0,7.0,76,0.00,,---,0.00,VWS V14.01,2013-05-23 01:14:00,
2013-05-22 21:19:00,71.2,64.4,29.88,West,274,0.0,7.0,79,0.00,,---,0.00,VWS V14.01,2013-05-23 01:19:00,
2013-05-22 21:20:00,71.2,64.4,29.88,West,274,0.0,7.0,79,0.00,,---,0.00,VWS V14.01,2013-05-23 01:20:00,
2013-05-22 21:24:00,70.5,64.4,29.87,WNW,299,0.0,1.0,81,0.01,,---,0.01,VWS V14.01,2013-05-23 01:24:00,
2013-05-22 21:29:00,69.8,64.8,29.87,WNW,295,1.0,3.0,84,0.01,,---,0.01,VWS V14.01,2013-05-23 01:29:00,
2013-05-22 21:30:00,69.8,64.8,29.87,WNW,295,1.0,3.0,84,0.01,,---,0.01,VWS V14.01,2013-05-23 01:30:00,
2013-05-22 21:34:00,69.3,64.3,29.87,SE,145,1.0,2.0,84,0.01,,---,0.01,VWS V14.01,2013-05-23 01:34:00,
2013-05-22 21:39:00,68.9,65.2,29.87,ESE,113,0.0,2.0,88,0.01,,---,0.01,VWS V14.01,2013-05-23 01:39:00,
2013-05-22 21:40:00,68.9,65.2,29.87,ESE,113,0.0,2.0,88,0.01,,---,0.01,VWS V14.01,2013-05-23 01:40:00,
2013-05-22 21:44:00,68.4,65.4,29.88,ESE,107,0.0,0.0,90,0.01,,---,0.01,VWS V14.01,2013-05-23 01:44:00,
2013-05-22 21:49:00,68.1,65.4,29.89,WSW,252,1.0,1.0,91,0.01,,---,0.01,VWS V14.01,2013-05-23 01:49:00,
2013-05-22 21:50:00,68.1,65.4,29.89,WSW,252,1.0,1.0,91,0.01,,---,0.01,VWS V14.01,2013-05-23 01:50:00,
2013-05-22 21:54:00,67.9,65.2,29.89,SW,221,1.0,2.0,91,0.01,,---,0.01,VWS V14.01,2013-05-23 01:54:00,
2013-05-22 21:59:00,68.0,64.6,29.89,WSW,250,0.0,0.0,89,0.01,,---,0.01,VWS V14.01,2013-05-23 01:59:00,
2013-05-22 22:00:00,68.0,64.6,29.89,WSW,250,0.0,3.0,89,0.01,,---,0.01,VWS V14.01,2013-05-23 02:00:00,
2013-05-22 22:04:00,68.3,64.9,29.89,WNW,288,0.0,3.0,89,0.01,,---,0.01,VWS V14.01,2013-05-23 02:04:00,
2013-05-22 22:09:00,68.3,65.3,29.89,WNW,288,0.0,0.0,90,0.01,,---,0.01,VWS V14.01,2013-05-23 02:09:00,
2013-05-22 22:10:00,68.3,65.3,29.89,WNW,288,0.0,3.0,90,0.01,,---,0.01,VWS V14.01,2013-05-23 02:10:00,
2013-05-22 22:14:00,68.2,65.2,29.89,NNW,347,0.0,1.0,90,0.01,,---,0.01,VWS V14.01,2013-05-23 02:14:00,
2013-05-22 22:19:00,68.2,65.8,29.89,SSW,194,1.0,2.0,92,0.01,,---,0.01,VWS V14.01,2013-05-23 02:19:00,
2013-05-22 22:20:00,68.2,65.8,29.89,SSW,194,2.0,2.0,92,0.01,,---,0.01,VWS V14.01,2013-05-23 02:20:00,
2013-05-22 22:24:00,68.0,65.0,29.89,ESE,115,2.0,4.0,90,0.01,,---,0.01,VWS V14.01,2013-05-23 02:24:00,
2013-05-22 22:29:00,68.0,65.3,29.89,East,87,3.0,3.0,91,0.01,,---,0.02,VWS V14.01,2013-05-23 02:29:00,
2013-05-22 22:30:00,68.0,65.3,29.89,East,91,3.0,4.0,91,0.02,,---,0.02,VWS V14.01,2013-05-23 02:30:00,
2013-05-22 22:34:00,67.7,65.3,29.89,East,99,3.0,4.0,92,0.01,,---,0.02,VWS V14.01,2013-05-23 02:34:00,
2013-05-22 22:39:00,67.6,65.2,29.88,ESE,116,1.0,5.0,92,0.01,,---,0.02,VWS V14.01,2013-05-23 02:39:00,
2013-05-22 22:40:00,67.6,65.2,29.88,ESE,116,1.0,5.0,92,0.01,,---,0.02,VWS V14.01,2013-05-23 02:40:00,
2013-05-22 22:44:00,67.5,65.1,29.89,ESE,115,0.0,1.0,92,0.01,,---,0.02,VWS V14.01,2013-05-23 02:44:00,
2013-05-22 22:49:00,67.3,64.9,29.89,ESE,114,0.0,1.0,92,0.01,,---,0.02,VWS V14.01,2013-05-23 02:49:00,
2013-05-22 22:50:00,67.3,64.9,29.89,ESE,114,0.0,1.0,92,0.01,,---,0.02,VWS V14.01,2013-05-23 02:50:00,
2013-05-22 22:54:00,67.1,65.0,29.89,ESE,115,0.0,0.0,93,0.01,,---,0.02,VWS V14.01,2013-05-23 02:54:00,
2013-05-22 22:59:00,66.9,64.8,29.89,ESE,115,0.0,0.0,93,0.01,,---,0.02,VWS V14.01,2013-05-23 02:59:00,
2013-05-22 23:00:00,66.9,64.8,29.89,ESE,115,0.0,1.0,93,0.01,,---,0.02,VWS V14.01,2013-05-23 03:00:00,
2013-05-22 23:04:00,66.9,65.1,29.88,East,82,1.0,1.0,94,0.01,,---,0.02,VWS V14.01,2013-05-23 03:04:00,
2013-05-22 23:09:00,66.9,65.4,29.88,East,81,0.0,0.0,95,0.01,,---,0.02,VWS V14.01,2013-05-23 03:09:00,
2013-05-22 23:10:00,66.9,65.4,29.88,East,80,0.0,1.0,95,0.01,,---,0.02,VWS V14.01,2013-05-23 03:10:00,
2013-05-22 23:14:00,66.8,65.3,29.87,East,81,0.0,0.0,95,0.01,,---,0.02,VWS V14.01,2013-05-23 03:14:00,
2013-05-22 23:19:00,66.7,65.2,29.87,East,82,0.0,0.0,95,0.01,,---,0.02,VWS V14.01,2013-05-23 03:19:00,
2013-05-22 23:20:00,66.8,65.3,29.87,East,82,0.0,1.0,95,0.01,,---,0.02,VWS V14.01,2013-05-23 03:20:00,
2013-05-22 23:24:00,66.6,65.1,29.88,East,82,0.0,0.0,95,0.01,,---,0.02,VWS V14.01,2013-05-23 03:24:00,
2013-05-22 23:29:00,66.4,64.9,29.88,SE,136,0.0,0.0,95,0.00,,---,0.02,VWS V14.01,2013-05-23 03:29:00,
2013-05-22 23:30:00,66.4,64.9,29.88,East,82,0.0,1.0,95,0.01,,---,0.02,VWS V14.01,2013-05-23 03:30:00,
2013-05-22 23:34:00,66.4,65.2,29.88,SSE,156,0.0,1.0,96,0.00,,---,0.02,VWS V14.01,2013-05-23 03:34:00,
2013-05-22 23:39:00,66.4,65.2,29.88,SSE,156,0.0,0.0,96,0.00,,---,0.02,VWS V14.01,2013-05-23 03:39:00,
2013-05-22 23:40:00,66.4,65.2,29.88,SSE,156,0.0,1.0,96,0.00,,---,0.02,VWS V14.01,2013-05-23 03:40:00,
2013-05-22 23:44:00,66.4,65.2,29.88,SSE,148,0.0,1.0,96,0.00,,---,0.02,VWS V14.01,2013-05-23 03:44:00,
2013-05-22 23:49:00,66.4,65.2,29.88,WSW,243,0.0,0.0,96,0.00,,---,0.02,VWS V14.01,2013-05-23 03:49:00,
2013-05-22 23:50:00,66.4,65.2,29.88,WSW,243,0.0,1.0,96,0.00,,---,0.02,VWS V14.01,2013-05-23 03:50:00,
2013-05-22 23:54:00,66.5,65.3,29.88,WSW,245,0.0,1.0,96,0.00,,---,0.02,VWS V14.01,2013-05-23 03:54:00,
2013-05-22 23:59:00,66.5,65.3,29.87,East,83,1.0,1.0,96,0.01,,---,0.00,VWS V14.01,2013-05-23 03:59:00,